User: anonymous   Login
Location: Hickory_Viewmont
(35.7830°N, 81.3170°W)
Time: 05:34:12
(UTC-05:00)
Language:

Okean-O - Orbit

View from above orbital plane
View from above orbital plane
View from above satellite
View from above satellite

Ground track
Ground track

The orbit data is extracted from the following two-line orbital elements,

1 25860U 99039A   14330.87062608  .00001105  00000-0  16960-3 0  4255
2 25860 098.0664 293.9952 0001030 114.3414 297.8341 14.75595448826144
Epoch (UTC): 26 November 2014 20:53:42
Eccentricity: 0.0001030
inclination: 98.0664°
perigee height: 642 km
apogee height: 644 km
right ascension of ascending node: 293.9952°
argument of perigee: 114.3414°
revolutions per day: 14.75595448
mean anomaly at epoch: 297.8341°
orbit number at epoch: 82614

The dashed part of the orbit path shows where the satellite is in the earth's shadow,  

DLR